Date String (YYYY-MM-DD hh:mm:ss) UTC,Instrument flags,absolute air pressure of the measurement (hPa),sample flow rate (lpm),inlet stack bypass flow (lpm),air temperature of the measurement (°C),ambient temperature measured by the external sensor (°C),aerosol sample conditioner tube jacket temperature (°C),OPC LED temperature (°C),internal box temperature (°C),relative humidity of the measurement (%),span deviation,mass concentration of particles derived from Lorenz-Mie calculation of OPC scattering (μg/m³),mass concentration of particles derived from Lorenz-Mie calculation of OPC scattering (μg/m³),mass concentration of particles derived from Lorenz-Mie calculation of OPC scattering (μg/m³)
DateTimeUTC,F1_M11,P_M11,Q1_M11,Q2_M11,T1_M11,T2_M11,T3_M11,T4_M11,T5_M11,U1_M11,ZSPAN_M11,X0_M11,X2_M11,X1_M11
2024-03-10 21:00:00,SystemResetWarning,0827.0,5.00,000.00,024.1,023.5,000.0,032.3,025.9,07.0,0000.0,0010.08,0004.00,0002.53
2024-03-10 21:01:00,SystemResetWarning,0827.0,5.00,000.00,024.1,023.6,000.0,032.3,025.9,06.9,0000.0,0010.04,0003.98,0002.53
2024-03-10 21:02:00,SystemResetWarning,0827.0,5.00,000.00,024.1,023.6,000.0,032.4,025.9,06.9,0000.0,0010.03,0003.99,0002.51
2024-03-10 21:03:00,SystemResetWarning,0826.9,5.00,000.00,024.1,023.6,000.0,032.4,025.9,07.3,0000.0,0010.09,0004.10,0002.50
2024-03-10 21:04:00,SystemResetWarning,0826.9,5.00,000.00,024.1,023.6,000.0,032.4,026.0,07.4,0000.0,0010.29,0004.07,0002.49
2024-03-10 21:05:00,SystemResetWarning,0826.9,5.00,000.00,024.2,023.6,000.0,032.4,026.0,07.7,0000.0,0010.79,0004.06,0002.47
2024-03-10 21:06:00,SystemResetWarning,0826.9,5.00,000.00,024.2,023.7,000.0,032.4,026.0,07.3,0000.0,0011.31,0004.11,0002.46
2024-03-10 21:07:00,SystemResetWarning,0826.9,5.00,000.00,024.2,023.7,000.0,032.4,026.0,07.1,0000.0,0012.14,0004.13,0002.48
2024-03-10 21:08:00,SystemResetWarning,0826.9,5.00,000.00,024.2,023.7,000.0,032.5,026.0,07.1,0000.0,0012.41,0004.12,0002.53
2024-03-10 21:09:00,SystemResetWarning,0826.9,5.00,000.00,024.2,023.7,000.0,032.5,026.0,07.4,0000.0,0012.27,0004.13,0002.58
2024-03-10 21:10:00,SystemResetWarning,0826.9,5.00,000.00,024.2,023.7,000.0,032.5,026.0,07.1,0000.0,0012.20,0004.13,0002.62
2024-03-10 21:11:00,SystemResetWarning,0826.9,5.01,000.00,024.2,023.7,000.0,032.5,026.1,06.9,0000.0,0013.21,0004.17,0002.66
2024-03-10 21:12:00,SystemResetWarning,0826.9,5.01,000.00,024.3,023.8,000.0,032.5,026.1,07.0,0000.0,0013.89,0004.21,0002.72
2024-03-10 21:13:00,SystemResetWarning,0826.9,4.99,000.00,024.3,023.8,000.0,032.5,026.1,06.9,0000.0,0014.52,0004.23,0002.78
2024-03-10 21:14:00,SystemResetWarning,0826.9,4.99,000.00,024.3,023.8,000.0,032.6,026.1,07.0,0000.0,0014.67,0004.21,0002.83
2024-03-10 21:15:00,SystemResetWarning,0826.9,5.00,000.00,024.3,023.8,000.0,032.6,026.1,07.2,0000.0,0014.86,0004.25,0002.90
2024-03-10 21:16:00,SystemResetWarning,0826.9,5.00,000.00,024.3,023.8,000.0,032.6,026.1,07.1,0000.0,0015.31,0004.31,0002.98
2024-03-10 21:17:00,SystemResetWarning,0826.9,5.01,000.00,024.3,023.8,000.0,032.6,026.2,07.2,0000.0,0014.91,0004.31,0003.04
2024-03-10 21:18:00,SystemResetWarning,0826.8,5.01,000.00,024.4,023.8,000.0,032.6,026.2,07.1,0000.0,0015.08,0004.30,0003.08
2024-03-10 21:19:00,SystemResetWarning,0826.8,5.01,000.00,024.4,023.8,000.0,032.6,026.2,06.9,0000.0,0014.91,0004.31,0003.09
2024-03-10 21:20:00,SystemResetWarning,0826.8,5.00,000.00,024.4,023.8,000.0,032.7,026.2,06.9,0000.0,0015.14,0004.34,0003.11
2024-03-10 21:21:00,SystemResetWarning,0826.8,4.99,000.00,024.4,023.8,000.0,032.7,026.2,07.0,0000.0,0016.62,0004.38,0003.14
2024-03-10 21:22:00,SystemResetWarning,0826.9,5.00,000.00,024.4,023.9,000.0,032.7,026.2,06.7,0000.0,0016.48,0004.36,0003.18
2024-03-10 21:23:00,SystemResetWarning,0826.9,5.00,000.00,024.4,023.9,000.0,032.7,026.2,06.5,0000.0,0016.43,0004.44,0003.21
2024-03-10 21:24:00,SystemResetWarning,0826.8,5.00,000.00,024.4,023.9,000.0,032.7,026.2,06.5,0000.0,0016.03,0004.56,0003.23
2024-03-10 21:25:00,SystemResetWarning,0826.8,5.00,000.00,024.5,023.9,000.0,032.7,026.3,06.6,0000.0,0015.84,0004.56,0003.24
2024-03-10 21:26:00,SystemResetWarning,0826.8,5.00,000.00,024.5,023.9,000.0,032.7,026.3,06.9,0000.0,0015.62,0004.57,0003.25
2024-03-10 21:27:00,SystemResetWarning,0826.8,5.00,000.00,024.5,023.9,000.0,032.8,026.3,07.1,0000.0,0014.73,0004.59,0003.26
2024-03-10 21:28:00,SystemResetWarning,0826.8,5.00,000.00,024.5,024.0,000.0,032.8,026.3,06.9,0000.0,0014.29,0004.58,0003.27
2024-03-10 21:29:00,SystemResetWarning,0826.8,5.00,000.00,024.5,024.0,000.0,032.8,026.4,07.0,0000.0,0014.35,0004.60,0003.28
2024-03-10 21:30:00,SystemResetWarning,0826.8,5.00,000.00,024.5,024.0,000.0,032.8,026.3,06.8,0000.0,0013.68,0004.57,0003.27
2024-03-10 21:31:00,SystemResetWarning,0826.8,4.99,000.00,024.6,024.0,000.0,032.8,026.4,06.9,0000.0,0014.08,0004.55,0003.27
2024-03-10 21:32:00,SystemResetWarning,0826.8,5.00,000.00,024.6,024.0,000.0,032.8,026.4,06.9,0000.0,0012.59,0004.53,0003.25
2024-03-10 21:33:00,SystemResetWarning,0826.8,5.00,000.00,024.6,024.1,000.0,032.9,026.4,06.9,0000.0,0012.49,0004.54,0003.23
2024-03-10 21:34:00,SystemResetWarning,0826.8,5.00,000.00,024.6,024.1,000.0,032.9,026.4,07.1,0000.0,0012.09,0004.49,0003.21
2024-03-10 21:35:00,SystemResetWarning,0826.8,5.00,000.00,024.6,024.1,000.0,032.9,026.5,06.9,0000.0,0011.94,0004.37,0003.18
2024-03-10 21:36:00,SystemResetWarning,0826.8,5.00,000.00,024.7,024.1,000.0,032.9,026.5,06.7,0000.0,0011.95,0004.34,0003.16
2024-03-10 21:37:00,SystemResetWarning,0826.8,5.00,000.00,024.7,024.2,000.0,032.9,026.5,06.1,0000.0,0011.95,0004.34,0003.15
2024-03-10 21:38:00,SystemResetWarning,0826.8,5.00,000.00,024.7,024.2,000.0,032.9,026.5,06.3,0000.0,0012.04,0004.33,0003.14
2024-03-10 21:39:00,SystemResetWarning,0826.8,5.00,000.00,024.7,024.2,000.0,033.0,026.6,06.1,0000.0,0012.12,0004.33,0003.12
2024-03-10 21:40:00,SystemResetWarning,0826.8,5.01,000.00,024.7,024.2,000.0,033.0,026.6,05.7,0000.0,0011.84,0004.33,0003.10
2024-03-10 21:41:00,SystemResetWarning,0826.8,5.01,000.00,024.8,024.2,000.0,033.0,026.6,05.9,0000.0,0011.84,0004.31,0003.08
2024-03-10 21:42:00,SystemResetWarning,0826.8,5.00,000.00,024.8,024.2,000.0,033.0,026.6,05.9,0000.0,0012.15,0004.34,0003.04
2024-03-10 21:43:00,SystemResetWarning,0826.8,5.00,000.00,024.8,024.2,000.0,033.0,026.6,06.0,0000.0,0012.59,0004.32,0002.99
2024-03-10 21:44:00,SystemResetWarning,0826.8,4.99,000.00,024.8,024.2,000.0,033.1,026.6,06.0,0000.0,0012.26,0004.31,0002.97
2024-03-10 21:45:00,SystemResetWarning,0826.8,4.99,000.00,024.8,024.3,000.0,033.1,026.6,06.0,0000.0,0011.85,0004.28,0002.97
2024-03-10 21:46:00,SystemResetWarning,0826.8,4.98,000.00,024.8,024.3,000.0,033.1,026.6,06.2,0000.0,0012.00,0004.27,0003.00
2024-03-10 21:47:00,SystemResetWarning,0826.8,5.00,000.00,024.8,024.3,000.0,033.1,026.6,06.5,0000.0,0012.87,0004.26,0003.03
2024-03-10 21:48:00,SystemResetWarning,0826.8,5.01,000.00,024.9,024.3,000.0,033.1,026.7,06.1,0000.0,0012.98,0004.28,0003.04
2024-03-10 21:49:00,SystemResetWarning,0826.8,5.01,000.00,024.9,024.3,000.0,033.1,026.7,05.9,0000.0,0013.26,0004.25,0003.04
2024-03-10 21:50:00,SystemResetWarning,0826.8,4.99,000.00,024.9,024.3,000.0,033.2,026.7,06.1,0000.0,0013.60,0004.25,0003.06
2024-03-10 21:51:00,SystemResetWarning,0826.8,4.99,000.00,024.9,024.3,000.0,033.2,026.7,06.0,0000.0,0013.31,0004.22,0003.07
2024-03-10 21:52:00,SystemResetWarning,0826.8,5.00,000.00,024.9,024.3,000.0,033.2,026.7,06.0,0000.0,0013.16,0004.24,0003.08
2024-03-10 21:53:00,SystemResetWarning,0826.8,5.01,000.00,024.9,024.3,000.0,033.2,026.7,06.1,0000.0,0012.70,0004.20,0003.08
2024-03-10 21:54:00,SystemResetWarning,0826.8,5.01,000.00,024.9,024.3,000.0,033.2,026.7,06.4,0000.0,0012.73,0004.21,0003.05
2024-03-10 21:55:00,SystemResetWarning,0826.7,5.00,000.00,025.0,024.4,000.0,033.2,026.7,06.2,0000.0,0013.68,0004.14,0002.99
2024-03-10 21:56:00,SystemResetWarning,0826.8,4.98,000.00,025.0,024.4,000.0,033.2,026.7,05.9,0000.0,0014.58,0004.14,0002.91
2024-03-10 21:57:00,SystemResetWarning,0826.8,4.99,000.00,025.0,024.4,000.0,033.3,026.8,05.8,0000.0,0015.72,0004.13,0002.82
2024-03-10 21:58:00,SystemResetWarning,0826.7,5.00,000.00,025.0,024.4,000.0,033.3,026.8,05.7,0000.0,0015.69,0004.08,0002.75
2024-03-10 21:59:00,SystemResetWarning,0826.6,5.00,000.00,025.0,024.4,000.0,033.3,026.8,05.7,0000.0,0015.46,0004.01,0002.67
